Regional Weather Roundup
Issued by NWS Cleveland, OH

Home | Current Version | Previous Version | Text Only | Print | Product List | Glossary Off
Versions: 1 2 3 4 5 6 7 8 9 10 11 12 13 14 15 16 17 18 19 20 21 22 23 24 25 26 27 28 29 30 31 32 33 34 35 36 37 38 39 40 41 42 43 44 45 46 47 48 49 50

000
ASUS41 KCLE 300000
RWRCLE
OHIO REGIONAL WEATHER ROUNDUP
NATIONAL WEATHER SERVICE WILMINGTON, OH
800 PM EDT FRI AUG 29 2014

NOTE: "FAIR" INDICATES FEW OR NO CLOUDS BELOW 12,000 FEET WITH NO
SIGNIFICANT WEATHER AND/OR OBSTRUCTIONS TO VISIBILITY.

OHZ001>008-015>018-024>027-034-035-043-044-300100-
   NORTHWEST OHIO

CITY           SKY/WX    TMP DP  RH WIND       PRES   REMARKS
DEFIANCE       CLEAR     81  65  58 S6        30.01S
FINDLAY        CLEAR     79  63  57 SE7       30.02F
TOLEDO EXPRESS CLEAR     78  63  59 SE3       30.01F
TOLEDO METCALF CLEAR     74  63  68 E8        30.03S
LIMA           CLEAR     78  66  66 E6        30.03S
$$

OHZ009>014-019>023-028>033-038-089-300100-
   NORTHEAST OHIO

CITY           SKY/WX    TMP DP  RH WIND       PRES   REMARKS
CLE-HOPKINS    CLEAR     75  52  44 S5        30.08S
CLE-LAKEFRONT  CLEAR     72  65  78 NE6       30.05F
CUY CO. ARPT   PTCLDY    75  55  50 SE9       30.08F
LORAIN-ELYRIA  CLEAR     77  57  50 SE5       30.07S
ASHTABULA      CLEAR     67  60  78 CALM      30.10F
AKRON-CANTON   PTCLDY    75  51  43 SE5       30.09S
WOOSTER        NOT AVBL
MANSFIELD      CLEAR     73  61  65 SE7       30.08S
YOUNGSTOWN     PTCLDY    68  57  68 E5        30.10F
$$

OHZ042-051>053-060>062-070>072-077>081-300100-
  SOUTHWEST OHIO

CITY           SKY/WX    TMP DP  RH WIND       PRES   REMARKS
CINC-COVINGTON MOCLDY    83  69  62 E7        30.01R
CINC-LUNKEN    LGT RAIN  82  71  69 S14       30.01R
HAMILTON       LGT RAIN  80  70  71 S5        30.01R
DAYTON         NOT AVBL
WRIGHT-PAT AFB CLEAR     81  66  60 E6        30.02S
DAYTON GENERAL PTCLDY    80  67  64 E6        30.01S
WILMINGTON     MOCLDY    79  66  64 E5        30.03S
$$

OHZ036-037-039>041-045>050-054>059-063>069-073>076-082>088-300100-
  CENTRAL AND SOUTHEAST OHIO

CITY           SKY/WX    TMP DP  RH WIND       PRES   REMARKS
COLUMBUS       MOCLDY    81  62  52 E7        30.04S
OSU AIRPORT    CLEAR     78  62  57 E8        30.04S
BOLTON FIELD   NOT AVBL
RICKENBACK AFB NOT AVBL
NEWARK         CLEAR     75  64  68 E5        30.05F
MARION         CLEAR     76  62  62 SE6       30.05F
LANCASTER      CLEAR     76  63  64 E6        30.05S
ZANESVILLE     CLEAR     77  59  53 E3        30.07F
NEW PHILLY     CLEAR     69  60  73 CALM      30.09S
$$



USA.gov is the U.S. government's official web portal to all federal, state and local government web resources and services.